Location: Équennes
(49.7375°N, 1.9622°E)
Time: 00:43:50
(UTC+00:00)

Cosmos 1408 - Pass Details

Date: 28 January 2023
Orbit: 431 x 463 km, 82.6° (Epoch: 30 March)

Event Time Altitude Azimuth Distance (km) Brightness Sun altitude
Rises 17:49:46 0° 157° (SSE) 2,397 6.0 -11.3°
Reaches altitude 10° 17:52:05 10° 142° (SE) 1,539 4.9 -11.7°
Maximum altitude 17:54:44 22° 89° (E) 1,010 3.6 -12.1°
Enters shadow 17:55:27 21° 70° (ENE) 1,062 3.6 -12.2°
